Time,TemperatureF,DewpointF,PressureIn,WindDirection,WindDirectionDegrees,WindSpeedMPH,WindSpeedGustMPH,Humidity,HourlyPrecipIn,Conditions,Clouds,dailyrainin,SoftwareType,DateUTC
2013-03-14 00:00:00,40.7,20.4,30.08,NW,315,2.5,6.0,44,0.00,,,0.00,WUHU216HW,2013-03-14 04:00:00,
2013-03-14 00:05:00,40.5,20.2,30.08,NW,315,1.8,6.3,44,0.00,,,0.00,WUHU216HW,2013-03-14 04:05:00,
2013-03-14 00:10:00,40.1,19.8,30.08,NW,315,2.2,6.3,44,0.00,,,0.00,WUHU216HW,2013-03-14 04:10:00,
2013-03-14 00:15:00,40.1,20.3,30.08,West,270,1.1,6.0,45,0.00,,,0.00,WUHU216HW,2013-03-14 04:15:00,
2013-03-14 00:20:00,40.0,20.7,30.09,West,270,3.1,6.0,46,0.00,,,0.00,WUHU216HW,2013-03-14 04:20:00,
2013-03-14 00:25:00,40.0,20.7,30.09,NW,315,2.9,4.0,46,0.00,,,0.00,WUHU216HW,2013-03-14 04:25:00,
2013-03-14 00:30:00,40.1,21.4,30.09,NW,315,4.0,4.0,47,0.00,,,0.00,WUHU216HW,2013-03-14 04:30:00,
2013-03-14 00:35:00,40.0,20.7,30.09,NW,315,2.7,4.0,46,0.00,,,0.00,WUHU216HW,2013-03-14 04:35:00,
2013-03-14 00:40:00,39.6,20.3,30.09,NW,315,2.2,4.0,46,0.00,,,0.00,WUHU216HW,2013-03-14 04:40:00,
2013-03-14 00:45:00,39.4,19.7,30.09,NNW,338,6.3,6.3,45,0.00,,,0.00,WUHU216HW,2013-03-14 04:45:00,
2013-03-14 00:50:00,39.1,19.4,30.10,North,0,1.1,8.1,45,0.00,,,0.00,WUHU216HW,2013-03-14 04:50:00,
2013-03-14 00:55:00,38.9,19.7,30.10,WNW,293,2.9,8.1,46,0.00,,,0.00,WUHU216HW,2013-03-14 04:55:00,
2013-03-14 01:00:00,38.7,19.1,30.10,NW,315,2.0,4.0,45,0.00,,,0.00,WUHU216HW,2013-03-14 05:00:00,
2013-03-14 01:05:00,38.5,18.9,30.10,WNW,293,6.9,7.6,45,0.00,,,0.00,WUHU216HW,2013-03-14 05:05:00,
2013-03-14 01:10:00,38.5,18.9,30.10,NNE,23,1.3,7.6,45,0.00,,,0.00,WUHU216HW,2013-03-14 05:10:00,
2013-03-14 01:15:00,38.3,18.7,30.10,NNW,338,0.4,3.1,45,0.00,,,0.00,WUHU216HW,2013-03-14 05:15:00,
2013-03-14 01:20:00,38.3,18.7,30.10,North,0,1.8,2.5,45,0.00,,,0.00,WUHU216HW,2013-03-14 05:20:00,
2013-03-14 01:25:00,38.0,18.4,30.10,NW,315,1.8,4.7,45,0.00,,,0.00,WUHU216HW,2013-03-14 05:25:00,
2013-03-14 01:30:00,38.0,18.4,30.11,NNW,338,2.0,4.7,45,0.00,,,0.00,WUHU216HW,2013-03-14 05:30:00,
2013-03-14 01:35:00,37.8,18.3,30.11,NW,315,2.2,3.8,45,0.00,,,0.00,WUHU216HW,2013-03-14 05:35:00,
2013-03-14 01:40:00,37.8,18.3,30.11,NNW,338,1.8,4.0,45,0.00,,,0.00,WUHU216HW,2013-03-14 05:40:00,
2013-03-14 01:45:00,37.8,18.3,30.11,NW,315,0.7,4.0,45,0.00,,,0.00,WUHU216HW,2013-03-14 05:45:00,
2013-03-14 01:50:00,37.6,18.1,30.11,WNW,293,1.8,2.9,45,0.00,,,0.00,WUHU216HW,2013-03-14 05:50:00,
2013-03-14 01:55:00,37.4,17.9,30.11,NNW,338,1.3,3.1,45,0.00,,,0.00,WUHU216HW,2013-03-14 05:55:00,
2013-03-14 02:00:00,37.4,17.9,30.11,NW,315,0.9,3.6,45,0.00,,,0.00,WUHU216HW,2013-03-14 06:00:00,
2013-03-14 02:05:00,37.3,17.7,30.11,NW,315,2.0,3.6,45,0.00,,,0.00,WUHU216HW,2013-03-14 06:05:00,
2013-03-14 02:10:00,37.3,18.3,30.11,West,270,2.5,2.7,46,0.00,,,0.00,WUHU216HW,2013-03-14 06:10:00,
2013-03-14 02:15:00,37.3,17.7,30.11,East,90,0.2,2.7,45,0.00,,,0.00,WUHU216HW,2013-03-14 06:15:00,
2013-03-14 02:20:00,37.1,18.1,30.11,NW,315,1.1,2.5,46,0.00,,,0.00,WUHU216HW,2013-03-14 06:20:00,
2013-03-14 02:25:00,37.1,18.1,30.11,NW,315,1.8,2.5,46,0.00,,,0.00,WUHU216HW,2013-03-14 06:25:00,
2013-03-14 02:30:00,37.1,17.6,30.11,WNW,293,1.1,2.5,45,0.00,,,0.00,WUHU216HW,2013-03-14 06:30:00,
2013-03-14 02:35:00,36.9,17.9,30.11,NW,315,1.3,2.7,46,0.00,,,0.00,WUHU216HW,2013-03-14 06:35:00,
2013-03-14 02:40:00,36.9,17.9,30.11,NNW,338,0.7,2.7,46,0.00,,,0.00,WUHU216HW,2013-03-14 06:40:00,
2013-03-14 02:45:00,36.7,17.8,30.11,NW,315,1.8,2.5,46,0.00,,,0.00,WUHU216HW,2013-03-14 06:45:00,
2013-03-14 02:50:00,36.5,17.7,30.11,NNW,338,0.9,2.5,46,0.00,,,0.00,WUHU216HW,2013-03-14 06:50:00,
2013-03-14 02:55:00,36.4,17.5,30.12,WNW,293,1.8,2.9,46,0.00,,,0.00,WUHU216HW,2013-03-14 06:55:00,
2013-03-14 03:00:00,36.4,17.5,30.11,NW,315,2.5,4.0,46,0.00,,,0.00,WUHU216HW,2013-03-14 07:00:00,
2013-03-14 03:05:00,36.4,16.9,30.11,NW,315,1.8,5.4,45,0.00,,,0.00,WUHU216HW,2013-03-14 07:05:00,
2013-03-14 03:10:00,36.2,17.3,30.11,NNW,338,0.7,5.4,46,0.00,,,0.00,WUHU216HW,2013-03-14 07:10:00,
2013-03-14 03:15:00,36.0,17.1,30.12,NNW,338,3.1,3.4,46,0.00,,,0.00,WUHU216HW,2013-03-14 07:15:00,
2013-03-14 03:20:00,35.8,17.0,30.11,NNW,338,1.1,3.1,46,0.00,,,0.00,WUHU216HW,2013-03-14 07:20:00,
2013-03-14 03:25:00,35.8,17.0,30.11,NNW,338,0.9,3.1,46,0.00,,,0.00,WUHU216HW,2013-03-14 07:25:00,
2013-03-14 03:30:00,35.8,17.0,30.11,WNW,293,1.6,1.8,46,0.00,,,0.00,WUHU216HW,2013-03-14 07:30:00,
2013-03-14 03:35:00,35.6,16.8,30.11,NW,315,2.5,2.9,46,0.00,,,0.00,WUHU216HW,2013-03-14 07:35:00,
2013-03-14 03:40:00,35.6,16.8,30.11,NW,315,0.7,2.9,46,0.00,,,0.00,WUHU216HW,2013-03-14 07:40:00,
2013-03-14 03:45:00,35.5,16.7,30.11,NW,315,1.6,2.5,46,0.00,,,0.00,WUHU216HW,2013-03-14 07:45:00,
2013-03-14 03:50:00,35.5,17.2,30.11,NW,315,1.1,2.5,47,0.00,,,0.00,WUHU216HW,2013-03-14 07:50:00,
2013-03-14 03:55:00,35.5,17.2,30.11,NW,315,0.2,2.5,47,0.00,,,0.00,WUHU216HW,2013-03-14 07:55:00,
2013-03-14 04:00:00,35.5,17.2,30.11,NNW,338,0.2,1.8,47,0.00,,,0.00,WUHU216HW,2013-03-14 08:00:00,
2013-03-14 04:05:00,35.5,17.2,30.11,NW,315,0.0,1.1,47,0.00,,,0.00,WUHU216HW,2013-03-14 08:05:00,
2013-03-14 04:10:00,35.5,17.2,30.11,NW,315,0.0,0.7,47,0.00,,,0.00,WUHU216HW,2013-03-14 08:10:00,
2013-03-14 04:15:00,35.5,17.2,30.11,NW,315,0.4,0.7,47,0.00,,,0.00,WUHU216HW,2013-03-14 08:15:00,
2013-03-14 04:20:00,35.5,17.6,30.11,West,270,1.1,1.3,48,0.00,,,0.00,WUHU216HW,2013-03-14 08:20:00,
2013-03-14 04:25:00,35.5,17.6,30.11,West,270,0.7,1.8,48,0.00,,,0.00,WUHU216HW,2013-03-14 08:25:00,
2013-03-14 04:30:00,35.5,17.6,30.11,West,270,1.1,1.8,48,0.00,,,0.00,WUHU216HW,2013-03-14 08:30:00,
2013-03-14 04:35:00,35.5,18.2,30.11,West,270,1.1,1.8,49,0.00,,,0.00,WUHU216HW,2013-03-14 08:35:00,
2013-03-14 04:40:00,35.3,18.0,30.11,West,270,1.6,1.8,49,0.00,,,0.00,WUHU216HW,2013-03-14 08:40:00,
2013-03-14 04:45:00,35.3,18.0,30.11,West,270,0.4,1.6,49,0.00,,,0.00,WUHU216HW,2013-03-14 08:45:00,
2013-03-14 04:50:00,35.3,18.0,30.11,SW,225,0.2,1.6,49,0.00,,,0.00,WUHU216HW,2013-03-14 08:50:00,
2013-03-14 04:55:00,35.1,17.8,30.11,WSW,248,0.4,1.1,49,0.00,,,0.00,WUHU216HW,2013-03-14 08:55:00,
2013-03-14 05:00:00,35.1,17.8,30.11,West,270,0.2,1.1,49,0.00,,,0.00,WUHU216HW,2013-03-14 09:00:00,
2013-03-14 05:05:00,34.9,18.2,30.11,West,270,0.7,1.3,50,0.00,,,0.00,WUHU216HW,2013-03-14 09:05:00,
2013-03-14 05:10:00,34.9,18.2,30.11,WNW,293,0.7,1.3,50,0.00,,,0.00,WUHU216HW,2013-03-14 09:10:00,
2013-03-14 05:15:00,34.7,18.0,30.12,West,270,2.0,2.0,50,0.00,,,0.00,WUHU216HW,2013-03-14 09:15:00,
2013-03-14 05:20:00,34.7,18.5,30.11,West,270,1.6,2.2,51,0.00,,,0.00,WUHU216HW,2013-03-14 09:20:00,
2013-03-14 05:25:00,34.7,18.5,30.12,WNW,293,0.4,2.2,51,0.00,,,0.00,WUHU216HW,2013-03-14 09:25:00,
2013-03-14 05:30:00,34.7,18.5,30.12,West,270,0.2,1.6,51,0.00,,,0.00,WUHU216HW,2013-03-14 09:30:00,
2013-03-14 05:35:00,34.7,18.5,30.12,WSW,248,0.0,1.6,51,0.00,,,0.00,WUHU216HW,2013-03-14 09:35:00,
2013-03-14 05:40:00,34.7,18.5,30.13,West,270,0.0,1.1,51,0.00,,,0.00,WUHU216HW,2013-03-14 09:40:00,
2013-03-14 05:45:00,34.6,18.3,30.13,East,90,0.0,0.4,51,0.00,,,0.00,WUHU216HW,2013-03-14 09:45:00,
2013-03-14 05:50:00,34.6,18.3,30.13,NNW,338,0.0,0.4,51,0.00,,,0.00,WUHU216HW,2013-03-14 09:50:00,
2013-03-14 05:55:00,34.4,18.1,30.13,West,270,0.4,0.7,51,0.00,,,0.00,WUHU216HW,2013-03-14 09:55:00,
2013-03-14 06:00:00,34.2,17.9,30.13,West,270,0.9,1.1,51,0.00,,,0.00,WUHU216HW,2013-03-14 10:00:00,
2013-03-14 06:05:00,34.2,18.4,30.13,West,270,1.3,1.3,52,0.00,,,0.00,WUHU216HW,2013-03-14 10:05:00,
2013-03-14 06:10:00,34.2,18.4,30.13,West,270,0.9,1.3,52,0.00,,,0.00,WUHU216HW,2013-03-14 10:10:00,
2013-03-14 06:15:00,34.0,18.2,30.14,NW,315,0.0,1.3,52,0.00,,,0.00,WUHU216HW,2013-03-14 10:15:00,
2013-03-14 06:20:00,34.0,18.2,30.14,West,270,0.0,0.9,52,0.00,,,0.00,WUHU216HW,2013-03-14 10:20:00,
2013-03-14 06:25:00,34.0,18.2,30.14,West,270,0.4,1.1,52,0.00,,,0.00,WUHU216HW,2013-03-14 10:25:00,
2013-03-14 06:30:00,33.8,18.4,30.14,WSW,248,0.2,1.1,53,0.00,,,0.00,WUHU216HW,2013-03-14 10:30:00,
2013-03-14 06:35:00,33.8,18.4,30.15,West,270,0.0,0.7,53,0.00,,,0.00,WUHU216HW,2013-03-14 10:35:00,
2013-03-14 06:40:00,33.8,18.4,30.14,West,270,0.4,0.7,53,0.00,,,0.00,WUHU216HW,2013-03-14 10:40:00,
2013-03-14 06:45:00,33.7,18.3,30.15,WNW,293,0.9,1.1,53,0.00,,,0.00,WUHU216HW,2013-03-14 10:45:00,
2013-03-14 06:50:00,33.7,18.3,30.15,WNW,293,1.1,1.1,53,0.00,,,0.00,WUHU216HW,2013-03-14 10:50:00,
2013-03-14 06:55:00,33.7,18.6,30.15,NW,315,1.1,1.3,54,0.00,,,0.00,WUHU216HW,2013-03-14 10:55:00,
2013-03-14 07:00:00,33.5,18.1,30.15,WNW,293,0.4,1.3,53,0.00,,,0.00,WUHU216HW,2013-03-14 11:00:00,
2013-03-14 07:05:00,33.5,18.1,30.15,West,270,0.2,1.1,53,0.00,,,0.00,WUHU216HW,2013-03-14 11:05:00,
2013-03-14 07:10:00,33.5,18.6,30.15,West,270,0.2,1.1,54,0.00,,,0.00,WUHU216HW,2013-03-14 11:10:00,
2013-03-14 07:15:00,33.5,18.1,30.15,NW,315,0.0,0.4,53,0.00,,,0.00,WUHU216HW,2013-03-14 11:15:00,
2013-03-14 07:20:00,33.3,18.4,30.16,WNW,293,0.9,1.1,54,0.00,,,0.00,WUHU216HW,2013-03-14 11:20:00,
2013-03-14 07:25:00,33.1,18.2,30.16,WNW,293,1.3,1.6,54,0.00,,,0.00,WUHU216HW,2013-03-14 11:25:00,
2013-03-14 07:30:00,33.3,18.4,30.16,West,270,1.1,1.8,54,0.00,,,0.00,WUHU216HW,2013-03-14 11:30:00,
2013-03-14 07:35:00,33.3,18.4,30.16,WNW,293,0.4,1.8,54,0.00,,,0.00,WUHU216HW,2013-03-14 11:35:00,
2013-03-14 07:40:00,33.3,18.4,30.16,NW,315,0.0,1.6,54,0.00,,,0.00,WUHU216HW,2013-03-14 11:40:00,
2013-03-14 07:45:00,33.3,18.4,30.16,West,270,0.7,0.7,54,0.00,,,0.00,WUHU216HW,2013-03-14 11:45:00,
2013-03-14 07:50:00,33.5,18.6,30.16,West,270,0.7,0.9,54,0.00,,,0.00,WUHU216HW,2013-03-14 11:50:00,
2013-03-14 07:55:00,33.5,18.6,30.16,WSW,248,0.4,1.8,54,0.00,,,0.00,WUHU216HW,2013-03-14 11:55:00,
2013-03-14 08:00:00,33.5,18.6,30.16,WSW,248,0.0,1.8,54,0.00,,,0.00,WUHU216HW,2013-03-14 12:00:00,
2013-03-14 08:05:00,33.5,18.6,30.17,WSW,248,0.2,0.9,54,0.00,,,0.00,WUHU216HW,2013-03-14 12:05:00,
2013-03-14 08:10:00,33.5,18.6,30.17,SW,225,0.2,0.9,54,0.00,,,0.00,WUHU216HW,2013-03-14 12:10:00,
2013-03-14 08:15:00,33.7,18.6,30.17,West,270,1.3,1.6,54,0.00,,,0.00,WUHU216HW,2013-03-14 12:15:00,
2013-03-14 08:20:00,33.8,18.8,30.17,West,270,1.1,2.5,54,0.00,,,0.00,WUHU216HW,2013-03-14 12:20:00,
2013-03-14 08:25:00,33.8,18.8,30.17,WSW,248,0.4,2.5,54,0.00,,,0.00,WUHU216HW,2013-03-14 12:25:00,
2013-03-14 08:30:00,34.2,19.2,30.18,NW,315,0.9,1.6,54,0.00,,,0.00,WUHU216HW,2013-03-14 12:30:00,
2013-03-14 08:35:00,34.2,18.7,30.18,NNW,338,1.3,1.3,53,0.00,,,0.00,WUHU216HW,2013-03-14 12:35:00,
2013-03-14 08:40:00,34.4,18.9,30.18,NW,315,1.1,2.5,53,0.00,,,0.00,WUHU216HW,2013-03-14 12:40:00,
2013-03-14 08:45:00,34.6,19.1,30.18,NW,315,0.0,2.5,53,0.00,,,0.00,WUHU216HW,2013-03-14 12:45:00,
2013-03-14 08:50:00,34.7,18.9,30.18,WNW,293,2.0,2.9,52,0.00,,,0.00,WUHU216HW,2013-03-14 12:50:00,
2013-03-14 08:55:00,34.9,18.6,30.18,NW,315,1.6,2.9,51,0.00,,,0.00,WUHU216HW,2013-03-14 12:55:00,
2013-03-14 09:00:00,35.1,19.3,30.18,WNW,293,2.2,3.4,52,0.00,,,0.00,WUHU216HW,2013-03-14 13:00:00,
2013-03-14 09:05:00,35.6,19.4,30.18,NNW,338,2.5,5.8,51,0.00,,,0.00,WUHU216HW,2013-03-14 13:05:00,
2013-03-14 09:10:00,35.5,18.2,30.18,NE,45,1.1,5.8,49,0.00,,,0.00,WUHU216HW,2013-03-14 13:10:00,
2013-03-14 09:15:00,35.8,19.5,30.18,West,270,2.7,5.8,51,0.00,,,0.00,WUHU216HW,2013-03-14 13:15:00,
2013-03-14 09:20:00,36.4,20.0,30.18,NW,315,1.1,3.4,51,0.00,,,0.00,WUHU216HW,2013-03-14 13:20:00,
2013-03-14 09:25:00,36.5,19.7,30.18,NNW,338,1.8,3.4,50,0.00,,,0.00,WUHU216HW,2013-03-14 13:25:00,
2013-03-14 09:30:00,36.4,19.0,30.19,NW,315,2.5,6.9,49,0.00,,,0.00,WUHU216HW,2013-03-14 13:30:00,
2013-03-14 09:35:00,36.7,18.8,30.18,North,0,2.5,6.9,48,0.00,,,0.00,WUHU216HW,2013-03-14 13:35:00,
2013-03-14 09:40:00,36.7,18.3,30.19,North,0,3.8,6.3,47,0.00,,,0.00,WUHU216HW,2013-03-14 13:40:00,
2013-03-14 09:45:00,36.5,18.6,30.18,WNW,293,3.1,7.2,48,0.00,,,0.00,WUHU216HW,2013-03-14 13:45:00,
2013-03-14 09:50:00,37.1,19.2,30.19,NW,315,2.7,7.2,48,0.00,,,0.00,WUHU216HW,2013-03-14 13:50:00,
2013-03-14 09:55:00,37.3,18.8,30.19,NW,315,2.9,4.3,47,0.00,,,0.00,WUHU216HW,2013-03-14 13:55:00,
2013-03-14 10:00:00,37.4,19.0,30.18,NNW,338,4.7,4.7,47,0.00,,,0.00,WUHU216HW,2013-03-14 14:00:00,
2013-03-14 10:05:00,37.4,18.5,30.18,NNE,23,2.5,5.8,46,0.00,,,0.00,WUHU216HW,2013-03-14 14:05:00,
2013-03-14 10:10:00,37.6,18.1,30.18,NNW,338,2.2,6.0,45,0.00,,,0.00,WUHU216HW,2013-03-14 14:10:00,
2013-03-14 10:15:00,38.0,18.9,30.18,NNW,338,1.3,6.3,46,0.00,,,0.00,WUHU216HW,2013-03-14 14:15:00,
2013-03-14 10:40:00,38.7,19.1,30.19,West,270,3.6,3.6,45,0.00,,,0.00,WUHU216HW,2013-03-14 14:40:00,
2013-03-14 10:45:00,39.2,19.5,30.19,West,270,3.6,3.8,45,0.00,,,0.00,WUHU216HW,2013-03-14 14:45:00,
2013-03-14 10:50:00,39.4,19.7,30.19,WNW,293,1.6,5.4,45,0.00,,,0.00,WUHU216HW,2013-03-14 14:50:00,
2013-03-14 10:55:00,39.4,19.7,30.19,North,0,1.3,5.4,45,0.00,,,0.00,WUHU216HW,2013-03-14 14:55:00,
2013-03-14 11:01:00,39.6,20.3,30.19,NW,315,1.1,5.4,46,0.00,,,0.00,WUHU216HW,2013-03-14 15:01:00,
2013-03-14 11:06:00,39.8,19.5,30.19,NNW,338,2.5,10.1,44,0.00,,,0.00,WUHU216HW,2013-03-14 15:06:00,
2013-03-14 11:11:00,40.0,19.6,30.19,WSW,248,1.8,10.1,44,0.00,,,0.00,WUHU216HW,2013-03-14 15:11:00,
2013-03-14 11:17:00,40.0,19.6,30.19,NW,315,1.1,7.2,44,0.00,,,0.00,WUHU216HW,2013-03-14 15:17:00,
2013-03-14 11:22:00,40.3,18.9,30.18,North,0,4.3,8.5,42,0.00,,,0.00,WUHU216HW,2013-03-14 15:22:00,
2013-03-14 11:27:00,40.3,18.9,30.19,West,270,1.6,8.5,42,0.00,,,0.00,WUHU216HW,2013-03-14 15:27:00,
2013-03-14 11:32:00,40.7,19.8,30.19,North,0,0.9,5.6,43,0.00,,,0.00,WUHU216HW,2013-03-14 15:32:00,
2013-03-14 11:37:00,41.0,20.1,30.19,West,270,6.0,6.0,43,0.00,,,0.00,WUHU216HW,2013-03-14 15:37:00,
2013-03-14 11:42:00,41.4,20.4,30.19,NNW,338,1.1,6.0,43,0.00,,,0.00,WUHU216HW,2013-03-14 15:42:00,
2013-03-14 11:47:00,41.6,20.6,30.19,NW,315,1.3,5.4,43,0.00,,,0.00,WUHU216HW,2013-03-14 15:47:00,
2013-03-14 11:52:00,41.6,19.0,30.18,NNW,338,4.5,9.2,40,0.00,,,0.00,WUHU216HW,2013-03-14 15:52:00,
2013-03-14 11:57:00,41.6,20.1,30.18,SSW,203,1.8,9.2,42,0.00,,,0.00,WUHU216HW,2013-03-14 15:57:00,
2013-03-14 12:02:00,41.9,20.4,30.18,West,270,2.5,4.5,42,0.00,,,0.00,WUHU216HW,2013-03-14 16:02:00,
2013-03-14 12:07:00,42.3,20.7,30.17,NW,315,2.2,4.7,42,0.00,,,0.00,WUHU216HW,2013-03-14 16:07:00,
2013-03-14 12:12:00,42.7,21.1,30.17,WSW,248,3.8,4.7,42,0.00,,,0.00,WUHU216HW,2013-03-14 16:12:00,
2013-03-14 12:17:00,43.2,21.1,30.18,North,0,1.8,4.7,41,0.00,,,0.00,WUHU216HW,2013-03-14 16:17:00,
2013-03-14 12:22:00,43.0,20.4,30.17,NW,315,0.9,5.1,40,0.00,,,0.00,WUHU216HW,2013-03-14 16:22:00,
2013-03-14 12:27:00,43.0,19.6,30.16,North,0,3.4,7.2,39,0.00,,,0.00,WUHU216HW,2013-03-14 16:27:00,
2013-03-14 12:32:00,42.8,19.5,30.16,NW,315,4.3,7.6,39,0.00,,,0.00,WUHU216HW,2013-03-14 16:32:00,
2013-03-14 12:37:00,43.0,19.0,30.16,WNW,293,2.5,7.6,38,0.00,,,0.00,WUHU216HW,2013-03-14 16:37:00,
2013-03-14 12:42:00,43.6,20.2,30.16,NNW,338,2.5,5.8,39,0.00,,,0.00,WUHU216HW,2013-03-14 16:42:00,
2013-03-14 12:47:00,44.1,20.0,30.16,WNW,293,2.5,4.5,38,0.00,,,0.00,WUHU216HW,2013-03-14 16:47:00,
2013-03-14 12:52:00,44.5,21.6,30.16,WNW,293,2.7,3.6,40,0.00,,,0.00,WUHU216HW,2013-03-14 16:52:00,
2013-03-14 12:57:00,45.0,22.7,30.16,SW,225,0.4,3.6,41,0.00,,,0.00,WUHU216HW,2013-03-14 16:57:00,
2013-03-14 13:02:00,45.2,21.6,30.15,West,270,1.6,3.6,39,0.00,,,0.00,WUHU216HW,2013-03-14 17:02:00,
2013-03-14 13:07:00,45.7,22.1,30.15,West,270,4.7,5.8,39,0.00,,,0.00,WUHU216HW,2013-03-14 17:07:00,
2013-03-14 13:12:00,46.3,21.2,30.15,North,0,4.5,5.8,37,0.00,,,0.00,WUHU216HW,2013-03-14 17:12:00,
2013-03-14 13:17:00,45.9,20.9,30.15,West,270,3.6,5.8,37,0.00,,,0.00,WUHU216HW,2013-03-14 17:17:00,
2013-03-14 13:22:00,46.4,21.4,30.14,ESE,113,1.6,5.8,37,0.00,,,0.00,WUHU216HW,2013-03-14 17:22:00,
2013-03-14 13:27:00,47.0,22.6,30.14,NW,315,2.5,5.6,38,0.00,,,0.00,WUHU216HW,2013-03-14 17:27:00,
2013-03-14 13:32:00,47.3,22.2,30.14,WNW,293,1.6,6.5,37,0.00,,,0.00,WUHU216HW,2013-03-14 17:32:00,
2013-03-14 13:37:00,47.9,23.4,30.13,SW,225,2.2,6.5,38,0.00,,,0.00,WUHU216HW,2013-03-14 17:37:00,
2013-03-14 13:42:00,48.6,24.0,30.13,NW,315,0.9,5.1,38,0.00,,,0.00,WUHU216HW,2013-03-14 17:42:00,
2013-03-14 13:47:00,49.1,21.8,30.13,NW,315,2.9,6.3,34,0.00,,,0.00,WUHU216HW,2013-03-14 17:47:00,
2013-03-14 13:52:00,49.1,23.1,30.13,South,180,0.4,6.3,36,0.00,,,0.00,WUHU216HW,2013-03-14 17:52:00,
2013-03-14 13:57:00,49.5,24.1,30.13,NNW,338,2.0,3.8,37,0.00,,,0.00,WUHU216HW,2013-03-14 17:57:00,
2013-03-14 14:02:00,50.4,24.9,30.13,NW,315,2.5,6.9,37,0.00,,,0.00,WUHU216HW,2013-03-14 18:02:00,
2013-03-14 14:07:00,50.9,26.1,30.13,North,0,1.6,6.9,38,0.00,,,0.00,WUHU216HW,2013-03-14 18:07:00,
2013-03-14 14:12:00,51.7,26.0,30.13,West,270,2.9,4.7,37,0.00,,,0.00,WUHU216HW,2013-03-14 18:12:00,
2013-03-14 14:17:00,51.8,24.1,30.12,NW,315,2.5,4.7,34,0.00,,,0.00,WUHU216HW,2013-03-14 18:17:00,
2013-03-14 14:22:00,52.0,24.3,30.12,West,270,2.2,4.9,34,0.00,,,0.00,WUHU216HW,2013-03-14 18:22:00,
2013-03-14 14:27:00,52.2,24.5,30.11,WSW,248,2.9,5.6,34,0.00,,,0.00,WUHU216HW,2013-03-14 18:27:00,
2013-03-14 14:33:00,52.0,25.7,30.11,West,270,2.2,5.6,36,0.00,,,0.00,WUHU216HW,2013-03-14 18:33:00,
2013-03-14 14:37:00,52.0,25.7,30.11,WNW,293,2.9,4.9,36,0.00,,,0.00,WUHU216HW,2013-03-14 18:37:00,
2013-03-14 14:43:00,52.0,23.7,30.11,North,0,1.6,4.7,33,0.00,,,0.00,WUHU216HW,2013-03-14 18:43:00,
2013-03-14 14:48:00,52.0,26.4,30.10,NW,315,2.9,5.1,37,0.00,,,0.00,WUHU216HW,2013-03-14 18:48:00,
2013-03-14 14:53:00,52.4,26.0,30.10,WNW,293,1.8,5.1,36,0.00,,,0.00,WUHU216HW,2013-03-14 18:53:00,
2013-03-14 14:58:00,52.6,26.2,30.10,WNW,293,4.7,4.7,36,0.00,,,0.00,WUHU216HW,2013-03-14 18:58:00,
2013-03-14 15:03:00,52.4,23.9,30.09,NW,315,1.3,7.2,33,0.00,,,0.00,WUHU216HW,2013-03-14 19:03:00,
2013-03-14 15:08:00,52.4,24.7,30.09,West,270,4.0,7.2,34,0.00,,,0.00,WUHU216HW,2013-03-14 19:08:00,
2013-03-14 15:13:00,52.7,24.9,30.09,NW,315,1.1,5.4,34,0.00,,,0.00,WUHU216HW,2013-03-14 19:13:00,
2013-03-14 15:18:00,52.9,24.5,30.08,WNW,293,2.5,5.8,33,0.00,,,0.00,WUHU216HW,2013-03-14 19:18:00,
2013-03-14 15:23:00,53.1,24.6,30.08,WSW,248,3.4,5.8,33,0.00,,,0.00,WUHU216HW,2013-03-14 19:23:00,
2013-03-14 15:28:00,53.3,24.8,30.08,NW,315,4.0,4.7,33,0.00,,,0.00,WUHU216HW,2013-03-14 19:28:00,
2013-03-14 15:33:00,53.3,24.1,30.08,WNW,293,4.0,4.7,32,0.00,,,0.00,WUHU216HW,2013-03-14 19:33:00,
2013-03-14 15:38:00,53.5,25.7,30.08,WNW,293,3.8,6.3,34,0.00,,,0.00,WUHU216HW,2013-03-14 19:38:00,
2013-03-14 15:43:00,53.1,24.0,30.08,WSW,248,3.6,6.3,32,0.00,,,0.00,WUHU216HW,2013-03-14 19:43:00,
2013-03-14 15:48:00,53.5,24.2,30.08,NW,315,3.6,7.8,32,0.00,,,0.00,WUHU216HW,2013-03-14 19:48:00,
2013-03-14 15:53:00,53.6,24.4,30.08,NNW,338,1.8,7.8,32,0.00,,,0.00,WUHU216HW,2013-03-14 19:53:00,
2013-03-14 15:58:00,54.2,24.8,30.08,West,270,3.8,5.4,32,0.00,,,0.00,WUHU216HW,2013-03-14 19:58:00,
2013-03-14 16:03:00,54.4,25.0,30.08,West,270,3.4,5.4,32,0.00,,,0.00,WUHU216HW,2013-03-14 20:03:00,
2013-03-14 16:08:00,54.4,24.3,30.08,WNW,293,2.7,4.7,31,0.00,,,0.00,WUHU216HW,2013-03-14 20:08:00,
2013-03-14 16:13:00,54.4,24.3,30.08,WSW,248,4.9,5.8,31,0.00,,,0.00,WUHU216HW,2013-03-14 20:13:00,
2013-03-14 16:18:00,54.5,24.5,30.07,WSW,248,4.7,5.8,31,0.00,,,0.00,WUHU216HW,2013-03-14 20:18:00,
2013-03-14 16:23:00,54.5,23.8,30.07,West,270,2.9,6.3,30,0.00,,,0.00,WUHU216HW,2013-03-14 20:23:00,
2013-03-14 16:28:00,54.7,24.6,30.07,West,270,5.4,6.7,31,0.00,,,0.00,WUHU216HW,2013-03-14 20:28:00,
2013-03-14 16:33:00,54.9,24.0,30.07,West,270,1.6,6.7,30,0.00,,,0.00,WUHU216HW,2013-03-14 20:33:00,
2013-03-14 16:38:00,54.9,24.0,30.07,WSW,248,2.0,6.3,30,0.00,,,0.00,WUHU216HW,2013-03-14 20:38:00,
2013-03-14 16:43:00,54.9,24.0,30.07,NNW,338,2.2,5.6,30,0.00,,,0.00,WUHU216HW,2013-03-14 20:43:00,
2013-03-14 16:48:00,54.9,24.0,30.06,NW,315,3.4,5.6,30,0.00,,,0.00,WUHU216HW,2013-03-14 20:48:00,
2013-03-14 16:53:00,54.4,23.6,30.06,WNW,293,2.0,4.9,30,0.00,,,0.00,WUHU216HW,2013-03-14 20:53:00,
2013-03-14 16:58:00,54.4,21.7,30.06,WNW,293,2.0,4.9,28,0.00,,,0.00,WUHU216HW,2013-03-14 20:58:00,
2013-03-14 17:03:00,54.4,23.6,30.06,NNW,338,2.5,4.7,30,0.00,,,0.00,WUHU216HW,2013-03-14 21:03:00,
2013-03-14 17:08:00,54.4,22.7,30.06,NW,315,3.1,4.5,29,0.00,,,0.00,WUHU216HW,2013-03-14 21:08:00,
2013-03-14 17:13:00,54.4,22.7,30.06,West,270,3.8,5.1,29,0.00,,,0.00,WUHU216HW,2013-03-14 21:13:00,
2013-03-14 17:18:00,54.4,22.7,30.06,West,270,3.4,5.1,29,0.00,,,0.00,WUHU216HW,2013-03-14 21:18:00,
2013-03-14 17:23:00,54.0,21.4,30.06,WNW,293,4.0,5.4,28,0.00,,,0.00,WUHU216HW,2013-03-14 21:23:00,
2013-03-14 17:28:00,54.0,22.4,30.05,West,270,3.1,5.4,29,0.00,,,0.00,WUHU216HW,2013-03-14 21:28:00,
2013-03-14 17:33:00,54.0,22.4,30.05,West,270,1.3,5.4,29,0.00,,,0.00,WUHU216HW,2013-03-14 21:33:00,
2013-03-14 17:38:00,54.0,22.4,30.05,WNW,293,1.6,5.8,29,0.00,,,0.00,WUHU216HW,2013-03-14 21:38:00,
2013-03-14 17:43:00,53.8,21.2,30.05,NNW,338,5.1,5.8,28,0.00,,,0.00,WUHU216HW,2013-03-14 21:43:00,
2013-03-14 17:48:00,53.6,20.2,30.05,West,270,2.9,5.1,27,0.00,,,0.00,WUHU216HW,2013-03-14 21:48:00,
2013-03-14 17:53:00,53.5,20.0,30.05,NNW,338,3.8,5.4,27,0.00,,,0.00,WUHU216HW,2013-03-14 21:53:00,
2013-03-14 17:58:00,53.3,20.8,30.05,West,270,3.1,6.9,28,0.00,,,0.00,WUHU216HW,2013-03-14 21:58:00,
2013-03-14 18:03:00,53.1,19.7,30.05,NW,315,1.8,6.9,27,0.00,,,0.00,WUHU216HW,2013-03-14 22:03:00,
2013-03-14 18:08:00,52.9,19.5,30.05,North,0,4.0,5.8,27,0.00,,,0.00,WUHU216HW,2013-03-14 22:08:00,
2013-03-14 18:13:00,52.9,19.5,30.05,NNW,338,1.8,5.8,27,0.00,,,0.00,WUHU216HW,2013-03-14 22:13:00,
2013-03-14 18:18:00,52.7,19.4,30.05,West,270,1.1,5.8,27,0.00,,,0.00,WUHU216HW,2013-03-14 22:18:00,
2013-03-14 18:23:00,52.6,20.2,30.05,West,270,3.4,4.0,28,0.00,,,0.00,WUHU216HW,2013-03-14 22:23:00,
2013-03-14 18:28:00,52.6,20.2,30.05,WNW,293,0.7,4.0,28,0.00,,,0.00,WUHU216HW,2013-03-14 22:28:00,
2013-03-14 18:33:00,52.6,19.3,30.05,NNE,23,4.7,4.7,27,0.00,,,0.00,WUHU216HW,2013-03-14 22:33:00,
2013-03-14 18:38:00,52.2,18.9,30.06,NW,315,0.7,4.7,27,0.00,,,0.00,WUHU216HW,2013-03-14 22:38:00,
2013-03-14 18:43:00,52.2,19.9,30.06,North,0,0.4,4.7,28,0.00,,,0.00,WUHU216HW,2013-03-14 22:43:00,
2013-03-14 18:48:00,52.0,18.8,30.06,North,0,1.8,4.0,27,0.00,,,0.00,WUHU216HW,2013-03-14 22:48:00,
2013-03-14 18:53:00,51.8,19.5,30.06,NNW,338,1.6,4.0,28,0.00,,,0.00,WUHU216HW,2013-03-14 22:53:00,
2013-03-14 18:58:00,51.8,19.5,30.06,WNW,293,0.9,2.9,28,0.00,,,0.00,WUHU216HW,2013-03-14 22:58:00,
2013-03-14 19:03:00,51.5,20.2,30.06,WNW,293,0.0,1.8,29,0.00,,,0.00,WUHU216HW,2013-03-14 23:03:00,
2013-03-14 19:08:00,51.5,19.3,30.06,WNW,293,1.1,3.4,28,0.00,,,0.00,WUHU216HW,2013-03-14 23:08:00,
2013-03-14 19:13:00,51.3,20.0,30.06,WNW,293,0.4,3.4,29,0.00,,,0.00,WUHU216HW,2013-03-14 23:13:00,
2013-03-14 19:18:00,51.3,21.0,30.06,WNW,293,0.2,1.3,30,0.00,,,0.00,WUHU216HW,2013-03-14 23:18:00,
2013-03-14 19:23:00,51.1,20.8,30.06,WSW,248,0.4,1.3,30,0.00,,,0.00,WUHU216HW,2013-03-14 23:23:00,
2013-03-14 19:28:00,50.9,21.3,30.07,NNW,338,0.0,1.3,31,0.00,,,0.00,WUHU216HW,2013-03-14 23:28:00,
2013-03-14 19:33:00,50.8,21.2,30.07,NNW,338,0.0,0.7,31,0.00,,,0.00,WUHU216HW,2013-03-14 23:33:00,
2013-03-14 19:38:00,50.8,21.8,30.07,NNW,338,0.0,0.0,32,0.00,,,0.00,WUHU216HW,2013-03-14 23:38:00,
2013-03-14 19:43:00,50.4,21.5,30.07,North,0,0.0,0.0,32,0.00,,,0.00,WUHU216HW,2013-03-14 23:43:00,
2013-03-14 19:48:00,50.0,21.2,30.07,West,270,0.4,1.6,32,0.00,,,0.00,WUHU216HW,2013-03-14 23:48:00,
2013-03-14 19:53:00,49.9,21.7,30.07,West,270,1.1,1.6,33,0.00,,,0.00,WUHU216HW,2013-03-14 23:53:00,
2013-03-14 19:58:00,49.7,21.5,30.07,WNW,293,0.4,1.1,33,0.00,,,0.00,WUHU216HW,2013-03-14 23:58:00,
2013-03-14 20:03:00,49.5,21.4,30.08,WNW,293,0.4,1.1,33,0.00,,,0.00,WUHU216HW,2013-03-15 00:03:00,
2013-03-14 20:08:00,49.3,22.0,30.08,WSW,248,0.0,1.1,34,0.00,,,0.00,WUHU216HW,2013-03-15 00:08:00,
2013-03-14 20:13:00,49.3,23.3,30.08,WSW,248,0.0,0.9,36,0.00,,,0.00,WUHU216HW,2013-03-15 00:13:00,
2013-03-14 20:18:00,49.1,23.1,30.08,WSW,248,0.0,0.0,36,0.00,,,0.00,WUHU216HW,2013-03-15 00:18:00,
2013-03-14 20:23:00,49.0,23.0,30.08,SW,225,0.0,0.0,36,0.00,,,0.00,WUHU216HW,2013-03-15 00:23:00,
2013-03-14 20:28:00,48.8,23.5,30.08,WSW,248,0.7,1.1,37,0.00,,,0.00,WUHU216HW,2013-03-15 00:28:00,
2013-03-14 20:33:00,48.6,23.3,30.08,WSW,248,1.1,1.1,37,0.00,,,0.00,WUHU216HW,2013-03-15 00:33:00,
2013-03-14 20:38:00,48.4,23.2,30.08,WSW,248,0.2,1.3,37,0.00,,,0.00,WUHU216HW,2013-03-15 00:38:00,
2013-03-14 20:43:00,48.2,23.1,30.08,WSW,248,1.3,1.3,37,0.00,,,0.00,WUHU216HW,2013-03-15 00:43:00,
2013-03-14 20:48:00,48.1,23.5,30.08,WSW,248,0.0,1.3,38,0.00,,,0.00,WUHU216HW,2013-03-15 00:48:00,
2013-03-14 20:53:00,47.5,23.0,30.08,West,270,0.0,1.3,38,0.00,,,0.00,WUHU216HW,2013-03-15 00:53:00,
2013-03-14 20:58:00,47.2,22.7,30.08,West,270,0.0,0.4,38,0.00,,,0.00,WUHU216HW,2013-03-15 00:58:00,
2013-03-14 21:03:00,47.0,22.6,30.08,WSW,248,0.0,0.0,38,0.00,,,0.00,WUHU216HW,2013-03-15 01:03:00,
2013-03-14 21:08:00,46.8,22.4,30.08,SSE,158,0.0,0.4,38,0.00,,,0.00,WUHU216HW,2013-03-15 01:08:00,
2013-03-14 21:13:00,46.4,22.1,30.09,SE,135,0.0,0.4,38,0.00,,,0.00,WUHU216HW,2013-03-15 01:13:00,
2013-03-14 21:18:00,45.9,21.6,30.09,ESE,113,0.0,0.2,38,0.00,,,0.00,WUHU216HW,2013-03-15 01:18:00,
2013-03-14 21:23:00,45.5,22.0,30.09,North,0,0.0,0.0,39,0.00,,,0.00,WUHU216HW,2013-03-15 01:23:00,
2013-03-14 21:28:00,45.4,21.8,30.09,North,0,0.0,0.0,39,0.00,,,0.00,WUHU216HW,2013-03-15 01:28:00,
2013-03-14 21:33:00,45.0,22.2,30.09,WNW,293,0.7,0.7,40,0.00,,,0.00,WUHU216HW,2013-03-15 01:33:00,
2013-03-14 21:38:00,45.2,22.2,30.09,West,270,1.1,1.3,40,0.00,,,0.00,WUHU216HW,2013-03-15 01:38:00,
2013-03-14 21:43:00,45.0,22.7,30.09,WNW,293,0.4,1.3,41,0.00,,,0.00,WUHU216HW,2013-03-15 01:43:00,
2013-03-14 21:48:00,45.0,22.7,30.09,NNW,338,0.4,1.1,41,0.00,,,0.00,WUHU216HW,2013-03-15 01:48:00,
2013-03-14 21:53:00,44.8,22.5,30.09,NNW,338,0.4,1.1,41,0.00,,,0.00,WUHU216HW,2013-03-15 01:53:00,
2013-03-14 21:58:00,44.6,22.3,30.09,NW,315,0.0,1.1,41,0.00,,,0.00,WUHU216HW,2013-03-15 01:58:00,
2013-03-14 22:03:00,44.6,22.9,30.09,NW,315,0.0,1.1,42,0.00,,,0.00,WUHU216HW,2013-03-15 02:03:00,
2013-03-14 22:08:00,44.5,22.7,30.09,SW,225,0.4,0.9,42,0.00,,,0.00,WUHU216HW,2013-03-15 02:08:00,
2013-03-14 22:13:00,44.5,22.7,30.10,WSW,248,0.4,0.9,42,0.00,,,0.00,WUHU216HW,2013-03-15 02:13:00,
2013-03-14 22:18:00,44.5,23.2,30.09,WSW,248,0.0,0.9,43,0.00,,,0.00,WUHU216HW,2013-03-15 02:18:00,
2013-03-14 22:23:00,44.5,23.2,30.10,SSE,158,0.0,0.4,43,0.00,,,0.00,WUHU216HW,2013-03-15 02:23:00,
2013-03-14 22:28:00,44.3,23.0,30.10,SE,135,0.0,0.4,43,0.00,,,0.00,WUHU216HW,2013-03-15 02:28:00,
2013-03-14 22:33:00,44.3,23.0,30.11,SE,135,0.0,0.4,43,0.00,,,0.00,WUHU216HW,2013-03-15 02:33:00,
2013-03-14 22:38:00,44.1,23.5,30.10,SSE,158,0.0,0.4,44,0.00,,,0.00,WUHU216HW,2013-03-15 02:38:00,
2013-03-14 22:43:00,43.9,23.3,30.10,SW,225,0.0,0.4,44,0.00,,,0.00,WUHU216HW,2013-03-15 02:43:00,
2013-03-14 22:48:00,43.9,23.3,30.10,WSW,248,0.0,0.4,44,0.00,,,0.00,WUHU216HW,2013-03-15 02:48:00,
2013-03-14 22:53:00,43.6,23.0,30.10,NW,315,0.0,0.4,44,0.00,,,0.00,WUHU216HW,2013-03-15 02:53:00,
2013-03-14 22:58:00,43.2,22.7,30.10,NW,315,0.0,0.4,44,0.00,,,0.00,WUHU216HW,2013-03-15 02:58:00,
2013-03-14 23:03:00,43.2,23.2,30.10,NW,315,0.0,0.2,45,0.00,,,0.00,WUHU216HW,2013-03-15 03:03:00,
2013-03-14 23:08:00,43.0,23.1,30.10,NW,315,0.0,0.0,45,0.00,,,0.00,WUHU216HW,2013-03-15 03:08:00,
2013-03-14 23:13:00,42.8,22.9,30.10,NW,315,0.0,0.0,45,0.00,,,0.00,WUHU216HW,2013-03-15 03:13:00,
2013-03-14 23:18:00,42.8,22.9,30.10,NW,315,0.0,0.0,45,0.00,,,0.00,WUHU216HW,2013-03-15 03:18:00,
2013-03-14 23:23:00,42.7,23.2,30.11,NW,315,0.0,0.2,46,0.00,,,0.00,WUHU216HW,2013-03-15 03:23:00,
2013-03-14 23:28:00,42.3,22.9,30.10,NW,315,0.0,0.2,46,0.00,,,0.00,WUHU216HW,2013-03-15 03:28:00,
2013-03-14 23:33:00,41.6,22.2,30.10,NNW,338,0.0,0.4,46,0.00,,,0.00,WUHU216HW,2013-03-15 03:33:00,
2013-03-14 23:38:00,41.4,22.1,30.10,NNW,338,0.0,0.4,46,0.00,,,0.00,WUHU216HW,2013-03-15 03:38:00,
2013-03-14 23:43:00,41.4,22.5,30.11,NNW,338,0.0,0.2,47,0.00,,,0.00,WUHU216HW,2013-03-15 03:43:00,
2013-03-14 23:48:00,41.2,22.4,30.11,NNW,338,0.0,0.2,47,0.00,,,0.00,WUHU216HW,2013-03-15 03:48:00,
2013-03-14 23:53:00,41.0,22.2,30.11,NNW,338,0.0,0.0,47,0.00,,,0.00,WUHU216HW,2013-03-15 03:53:00,
2013-03-14 23:58:00,41.0,22.7,30.11,NNW,338,0.0,0.0,48,0.00,,,0.00,WUHU216HW,2013-03-15 03:58:00,